Location: Bodham
(52.9000°N, 1.1667°E)
Time: 15:11:47
(UTC+00:00)

Cosmos 2112 Rocket - Pass Details

Date: 22 October 2025
Orbit: 753 x 782 km, 74.0° (Epoch: 13 November)

Event Time Altitude Azimuth Distance (km) Brightness Sun altitude
Rises 18:35:48 0° 184° (S) 3,253 7.3 -17.5°
Reaches altitude 10° 18:38:15 10° 179° (S) 2,327 6.4 -17.8°
Maximum altitude 18:43:17 47° 107° (ESE) 1,025 4.2 -18.6°
Enters shadow 18:47:22 15° 38° (NE) 1,978 5.8 -19.2°
